STARLINK-11476, 62228

Orbit data source: Space-Track

STARLINK-11476, 62228 is a payload satellite owned by SpaceX/Seattle (US) in LEO that was launched on Thu, 05 Dec 2024 UTC via an FALCON 9 launch vehicle from the Air Force Western Test Range (AFWTR). Payload-class satellites include a variety of spacecraft equipped with specific instruments for various scientific and technological missions. These include communications satellites like Starlink; space stations such as the ISS; scientific satellites like the Hubble; Earth observation satellites from companies like Planet Labs, Umbra, and HawkEye 360; GPS; miniature CubeSats for education and research; and military/defense satellites.

Loading next visibility...
Identifier
62228, 2024-231L
Orbit
LEO
Last TLE update
13 hours ago
Origin
Manufacturer
SpaceX/Seattle
Mission
Operational Commercial Communications
Bus & Motor
STARLINK V2M, Unknown motor
Mass
730 kg wet, ~700 kg dry
Launch date (UTC)
2024-12-05 (7 months ago)
Launch vehicle
FALCON 9
Launch site
Air Force Western Test Range (AFWTR)
Object type
Payload
Rocket body
Debris
Shape & HBR
Box + 2 Pan, 29 m
Radar Cross Section
36.964 m², Large (>1 m²)

Expand to show TLE details & history

TLE from 13 hours ago
0 STARLINK-11476
1 62228U 24231L   25187.52924675  .00242416  00000-0  19445-2 0  9999
2 62228  53.1566 234.4185 0002786 155.8513 204.2636 15.69750646 34768
Epoch: 2025-07-06T12:42Z
TLE epoch observation values (Epoch: 2025-07-06T12:42:06.919Z)
Latitude
-0°
Longitude
119.13804°
Altitude
362.237 km
Speed
7.692 km/s
True Right ascension
15h 37m 40s
True Declination
0° 00' 00"
Sunlit
Object was in full shadow at epoch
Visualization orbit readout
Latitude
49.04092°
Longitude
175.69611°
Altitude
364.433 km
Speed
7.697 km/s
Apparent Right ascension
22h 30m 00s
Apparent Declination
8° 25' 01"
Sunlit
Object is in partial shadow
Visualization observer readout
Local Sidereal Time
13:13:58
Azimuth
47.654° ENE
Elevation
-28.605°
Doppler factor
1
Orbital elements
Apogee altitude
361.749 km
Perigee altitude
357.994 km
Semi-major axis
6,738.009 km
Eccentricity
0.00028
Inclination
53.1566°
RAAN
234.4185°
Arg. of periapsis
155.8513°
True anomaly
Unknown
Mean anomaly
204.2636°
Eccentric anomaly
Unknown
Mean motion
3.92415 °/min
Orbital period
91.74 mins
BSTAR
0.0019445
Loading maneuver chart data...
Loading SW <> Apogee altitude chart data...
Loading historical data...
Loading historical data...
Loading historical data...
Loading historical data...
Loading historical data...
Loading historical data...
Loading historical data...

STARLINK-11476 Visibility forecast

Observer location: undefined°, undefined°

Span
Click to sort rows by Start time (UTC) header in descending order
Start Az.
Max El. time (UTC)
Max El. Az.
Max El.
End time (UTC)
End Az.
5 mins2025-07-07 05:41:23.350Z215.407° SW2025-07-07 05:43:23.350Z155.822° SSE40.814°2025-07-07 05:46:23.350Z56.463° ENE
4 mins2025-07-07 12:06:23.350Z334.34° NNW2025-07-07 12:08:23.350Z51.028° ENE30.911°2025-07-07 12:10:23.350Z101.972° ESE
|